Weather History for Fort Myers, FL

Change the Weather History Date:

Tuesday, September 2, 2014

  Actual Average Record
Temperature  
Mean Temperature 85 °F 83 °F  
Max Temperature 95 °F 91 °F 95 °F (1952)
Min Temperature 74 °F 75 °F 69 °F (1942)
Degree Days  
Heating Degree Days 0 0  
Month to date heating degree days 0 0  
Since 1 July heating degree days 0 0  
Cooling Degree Days 20 18  
Month to date cooling degree days 41 36  
Year to date cooling degree days 2952 2760  
Growing Degree Days 33 (Base 50)    
Moisture  
Dew Point 73 °F    
Average Humidity 82    
Maximum Humidity 100    
Minimum Humidity 41    
Precipitation  
Precipitation 0.09 in 0.33 in 5.55 in (1969)
Month to date precipitation 0.09 0.66  
Year to date precipitation 29.33 41.73  
Sea Level Pressure  
Sea Level Pressure 30.03 in    
Wind  
Wind Speed 5 mph (SE)    
Max Wind Speed 16 mph    
Max Gust Speed 22 mph    
Visibility 10 miles    
Events Rain , Thunderstorm    
T = Trace of Precipitation, MM = Missing Value Source: NWS Daily Summary

Daily Weather History Graph

Daily Weather History Graph

Search for Another Location

Airport:

Trip Planner

Search our weather history database for the weather conditions in past years. The results will help you decide how hot, cold, wet, or windy it might be!

Date:

Astronomy

Sep. 02, 2014 Rise Set
Actual Time 7:07 AM EDT 7:46 PM EDT
Civil Twilight 6:44 AM EDT 8:09 PM EDT
Nautical Twilight 6:16 AM EDT 8:37 PM EDT
Astronomical Twilight 5:48 AM EDT 9:05 PM EDT
Moon 2:11 PM EDT (9/2) 12:25 AM EDT (9/2)
Length of Visible Light 13h 25m
Length of Day
12h 38m
First Quarter, 52% of the Moon is Illuminated
Sep 2
First Quarter
Sep 8
Full
Sep 15
Last Quarter
Sep 24
New
Oct 1
First Quarter

Hourly Weather History & Observations

Time (EDT) Temp. Heat Index Dew Point Humidity Pressure Visibility Wind Dir Wind Speed Gust Speed Precip Events Conditions
12:53 AM 75.0 °F - 73.0 °F 94% 30.09 in 10.0 mi East 4.6 mph - N/A   Clear
1:53 AM 75.0 °F - 73.0 °F 94% 30.08 in 10.0 mi Calm Calm - N/A   Clear
2:53 AM 75.0 °F - 73.0 °F 94% 30.06 in 10.0 mi East 3.5 mph - N/A   Clear
3:53 AM 73.9 °F - 73.0 °F 97% 30.04 in 10.0 mi Calm Calm - N/A   Clear
4:53 AM 73.9 °F - 72.0 °F 93% 30.02 in 10.0 mi Calm Calm - N/A   Clear
5:53 AM 73.9 °F - 72.0 °F 93% 30.01 in 10.0 mi ENE 4.6 mph - N/A   Clear
6:53 AM 73.9 °F - 72.0 °F 93% 30.03 in 10.0 mi NE 3.5 mph - N/A   Clear
7:53 AM 75.0 °F - 73.0 °F 94% 30.04 in 10.0 mi ENE 4.6 mph - N/A   Clear
8:53 AM 77.0 °F - 75.0 °F 94% 30.06 in 10.0 mi East 5.8 mph - N/A   Clear
9:53 AM 80.1 °F 85.1 °F 75.0 °F 85% 30.08 in 10.0 mi ESE 9.2 mph - N/A   Clear
10:53 AM 86.0 °F 93.0 °F 73.0 °F 65% 30.08 in 10.0 mi SSE 9.2 mph - N/A   Partly Cloudy
11:53 AM 89.1 °F 97.0 °F 73.0 °F 59% 30.08 in 10.0 mi Variable 4.6 mph - N/A   Scattered Clouds
12:53 PM 91.0 °F 97.6 °F 71.1 °F 52% 30.07 in 10.0 mi Variable 6.9 mph - N/A   Partly Cloudy
1:53 PM 90.0 °F 95.4 °F 70.0 °F 52% 30.04 in 10.0 mi NE 8.1 mph - N/A   Scattered Clouds
2:53 PM 93.0 °F 96.4 °F 66.9 °F 42% 30.01 in 10.0 mi East 5.8 mph - N/A   Scattered Clouds
3:53 PM 86.0 °F 93.0 °F 73.0 °F 65% 30.00 in 10.0 mi SE 10.4 mph 21.9 mph N/A   Overcast
4:02 PM 82.9 °F 90.2 °F 75.0 °F 77% 30.00 in 3.0 mi SE 9.2 mph - 0.02 in Rain , Thunderstorm Rain
4:09 PM 82.0 °F 88.6 °F 75.0 °F 79% 29.99 in 2.5 mi SSE 6.9 mph - 0.09 in Rain , Thunderstorm Light Rain
4:17 PM 82.0 °F 89.4 °F 75.9 °F 82% 29.99 in 10.0 mi South 6.9 mph - 0.09 in Rain , Thunderstorm Light Rain
4:53 PM 81.0 °F 86.7 °F 75.0 °F 82% 30.00 in 10.0 mi SSW 11.5 mph - 0.09 in Thunderstorm Mostly Cloudy
5:11 PM 80.1 °F 84.5 °F 73.9 °F 81% 29.99 in 10.0 mi WSW 9.2 mph - N/A   Partly Cloudy
5:20 PM 80.1 °F 84.2 °F 73.0 °F 79% 29.98 in 10.0 mi WSW 6.9 mph - N/A Thunderstorm Partly Cloudy
5:53 PM 79.0 °F - 73.9 °F 84% 30.00 in 10.0 mi South 6.9 mph - 0.00 in Thunderstorm Mostly Cloudy
6:04 PM 78.1 °F - 73.9 °F 87% 29.98 in 10.0 mi SW 3.5 mph - N/A   Scattered Clouds
6:53 PM 77.0 °F - 73.9 °F 90% 30.01 in 10.0 mi South 5.8 mph - N/A   Clear
7:53 PM 77.0 °F - 73.0 °F 88% 30.01 in 10.0 mi SSE 5.8 mph - N/A   Clear
8:53 PM 75.9 °F - 73.9 °F 94% 30.01 in 10.0 mi NE 3.5 mph - N/A   Clear
9:53 PM 75.9 °F - 73.9 °F 94% 30.04 in 10.0 mi ESE 3.5 mph - N/A   Clear
11:53 PM 73.9 °F - 72.0 °F 93% 30.04 in 10.0 mi South 3.5 mph - N/A   Clear